Location: Unspecified
(49.2170°N, 0.0000°E)
Time: 20:03:05
(UTC+00:00)

S-56A Canister/Altair - Visible Passes

Search period start: 21 January 2021 00:00
Search period end: 31 January 2021 00:00
Orbit: 633 x 2499 km, 38.9° (Epoch: 20 January)

Date Brightness Start Highest point End Pass type
(mag) Time Alt. Az. Time Alt. Az. Time Alt. Az.
21 Jan 9.0 04:46:02 25° SSE 04:46:02 25° SSE 04:50:29 10° ESE visible
21 Jan 9.4 06:44:29 10° WSW 06:48:54 27° S 06:54:38 10° SE visible
22 Jan 9.5 04:15:09 19° SE 04:15:09 19° SE 04:17:33 10° ESE visible
22 Jan 9.2 06:12:35 12° WSW 06:16:19 26° S 06:21:37 10° SE visible
23 Jan 10.1 03:44:16 12° ESE 03:44:16 12° ESE 03:44:41 10° ESE visible
23 Jan 8.9 05:41:41 19° SW 05:43:48 25° S 05:48:39 10° SE visible
24 Jan 8.8 05:10:48 24° SSW 05:11:18 25° S 05:15:47 10° SE visible
25 Jan 9.1 04:39:55 22° SSE 04:39:55 22° SSE 04:42:59 10° SE visible
25 Jan 9.5 06:38:34 10° WSW 06:41:45 17° SSW 06:45:29 10° SSE visible
26 Jan 9.7 04:09:02 15° SE 04:09:02 15° SE 04:10:14 10° SE visible
26 Jan 9.4 06:06:28 11° SW 06:09:12 17° SSW 06:12:47 10° SSE visible
27 Jan 9.1 05:35:35 16° SSW 05:36:42 17° SSW 05:40:08 10° SSE visible
28 Jan 9.2 05:04:44 17° S 05:04:44 17° S 05:07:32 10° SSE visible
29 Jan 9.6 04:33:54 14° SSE 04:33:54 14° SSE 04:35:01 10° SSE visible
